Temperature
19 19 18 18 18 18 18 18 18 18 18 18 18 18 18 18 18 18 18 18 18 18 18 18 18 18 18 18 18 18 17 17 17 17 17 17 17 17 17 17 16 16 16
19 18 18 18 18 18 18 18 18 18 18 18 18 18 18 18 18 18 18 18 18 18 18 18 18 18 18 18 18 18 18 17 17 17 17 17 17 17 17 17 16 16 16
19 19 18 18 18 18 18 18 18 18 18 18 18 18 18 18 18 19 19 19 18 18 18 18 18 18 18 18 18 18 18 17 17 17 17 17 17 17 17 17 16 16 16
19 19 18 18 18 18 18 18 18 18 18 18 18 18 19 19 19 19 19 19 19 19 18 18 18 18 18 18 18 18 18 18 18 17 17 17 17 17 17 17 17 16 16
19 19 18 18 18 18 18 18 18 18 18 18 18 18 18 19 19 19 19 19 19 19 19 18 18 18 18 18 18 18 18 18 18 18 17 17 17 17 17 17 17 16 16
19 19 18 18 18 18 18 18 18 18 18 18 18 18 18 18 19 19 19 19 19 19 19 18 18 18 18 18 18 18 18 18 18 18 17 17 17 17 17 17 17 17 16
19 19 19 18 18 18 18 18 18 18 18 18 18 18 18 18 18 18 19 19 19 19 19 18 18 18 18 18 18 18 18 18 18 18 17 17 17 17 17 17 17 17 16
19 19 19 19 18 18 18 18 18 18 18 18 18 18 18 18 18 18 18 19 19 18 18 18 18 18 18 18 18 18 18 18 18 18 18 17 17 17 17 17 17 17 17
19 19 19 19 18 18 18 18 18 18 18 18 18 18 18 18 18 19 19 19 19 18 18 18 18 18 18 18 18 18 18 18 18 18 17 17 17 17 17 17 17 17 17
19 19 19 19 18 18 18 18 18 18 18 18 18 18 18 18 18 18 18 19 18 19 19 19 18 18 18 18 18 18 18 18 18 18 17 17 17 17 17 17 17 17 17
19 19 19 19 19 19 18 18 18 18 18 18 18 18 18 18 18 18 18 19 19 19 19 19 18 18 18 18 18 18 18 18 18 18 17 17 17 17 17 17 17 17 17
19 19 19 19 19 19 19 18 18 18 18 18 18 18 18 18 18 18 18 18 18 19 19 19 19 18 18 18 18 18 18 18 18 17 17 17 17 17 17 17 17 17 17
19 19 19 19 19 19 19 18 18 18 18 18 18 18 18 18 18 18 18 18 18 18 19 19 19 18 18 18 18 18 18 18 17 17 17 17 17 17 17 17 17 17 17
19 19 19 19 19 19 19 18 18 18 18 18 18 18 18 18 18 18 18 18 18 18 18 18 18 18 18 18 18 18 18 18 17 17 17 17 17 17 17 17 17 17 16
19 19 19 19 19 18 18 18 18 18 18 18 18 18 18 18 18 18 18 18 18 17 17 18 18 18 18 18 17 17 17 18 17 17 17 17 17 17 17 17 17 17 16
19 19 19 19 18 18 18 18 18 18 18 18 18 18 18 18 18 18 18 18 17 17 17 18 18 18 17 17 17 17 17 17 17 17 17 17 17 17 16 16 16 16 16
19 19 19 18 18 18 18 18 18 18 18 18 18 18 18 18 18 18 18 17 17 17 17 17 17 17 17 17 17 17 17 17 17 17 17 17 16 16 16 16 16 16 16
19 18 18 18 18 18 18 18 18 18 18 18 18 18 18 18 18 17 17 17 17 17 17 17 17 17 17 17 17 17 17 17 17 17 17 16 16 16 16 16 16 16 16
18 18 18 18 18 18 18 18 18 18 18 18 17 17 17 17 17 17 17 17 17 17 17 17 17 17 16 16 16 16 16 16 16 16 16 16 16 16 16 16 16 16 16
18 18 18 18 18 18 18 18 18 18 17 17 17 17 17 17 17 17 17 17 17 17 16 16 16 16 16 16 16 16 16 16 16 16 16 16 16 15 15 15 15 15 15
18 18 17 18 18 18 18 17 17 17 17 17 17 17 17 17 17 17 16 16 16 16 16 16 16 16 16 16 16 15 15 15 15 15 15 15 15 15 15 15 15 15 15
18 17 17 17 17 17 17 17 17 17 17 17 17 17 17 16 16 16 16 16 16 16 16 16 15 15 15 15 15 15 15 15 15 15 15 15 14 15 15 15 14 14 14
17 17 17 17 17 17 17 17 17 17 17 17 16 16 16 16 16 16 16 16 16 15 15 15 15 15 15 15 15 14 14 14 14 14 14 14 14 14 14 14 14 14 14
17 17 17 17 17 17 17 17 16 16 16 16 16 16 16 16 16 15 15 15 15 15 15 15 15 15 14 14 14 14 14 14 14 14 14 13 14 14 14 14 14 14 14
17 17 17 16 16 16 16 16 16 16 16 16 15 15 15 15 15 15 15 15 15 15 15 14 14 14 14 14 14 14 14 13 13 13 13 13 13 13 13 13 13 13 13
16 16 16 16 16 16 16 15 15 15 15 15 15 15 15 15 15 15 14 14 14 14 14 14 14 14 14 13 13 13 13 13 13 12 13 12 12 12 12 12 12 12 12
Wind_Speed
5 5 5 6 6 6 5 5 4 4 3 4 4 4 3 4 5 7 10 14 15 16 16 15 15 14 14 13 13 13 13 12 12 12 12 12 12 12 12 11 11 11 11
6 6 5 5 5 7 7 6 5 4 3 2 3 3 4 4 6 8 9 12 14 15 15 15 15 15 15 14 14 14 14 13 13 13 13 13 13 13 13 13 13 13 13
8 6 5 5 5 7 7 5 3 2 2 2 2 2 3 4 5 6 8 10 12 14 15 15 15 16 15 15 15 15 15 15 14 14 14 14 14 14 14 14 14 14 14
9 6 5 5 6 6 5 4 3 2 2 2 2 2 2 3 5 6 7 9 10 11 14 16 16 15 16 15 15 15 15 14 15 15 15 15 15 16 16 16 15 15 15
10 7 5 4 6 5 4 4 3 3 2 2 2 2 2 3 3 5 6 8 10 11 11 13 15 16 16 16 15 15 15 15 15 15 15 16 16 16 17 17 17 16 16
9 7 5 5 5 4 4 4 3 3 3 2 2 2 2 3 3 3 5 6 9 11 12 12 12 13 15 16 16 16 15 15 15 16 16 16 16 17 17 17 17 17 17
9 7 5 5 5 5 5 5 4 3 2 2 1 2 3 2 2 3 3 3 5 8 10 11 11 11 11 15 16 16 15 15 15 16 16 16 16 16 17 17 17 17 17
8 8 6 5 6 5 5 5 4 3 2 3 3 1 2 3 3 3 3 4 5 5 6 9 10 11 11 10 12 15 15 15 15 16 16 16 17 17 16 17 17 17 17
8 7 7 6 6 6 6 6 6 5 4 3 4 4 2 3 2 3 2 3 3 3 4 5 8 10 11 11 11 14 16 16 16 16 16 16 16 16 16 16 16 17 16
8 8 7 7 6 5 6 6 5 4 5 4 3 3 3 4 2 2 3 3 3 4 4 4 5 8 11 11 12 13 15 16 17 16 15 15 15 15 15 15 15 15 16
6 7 7 6 6 6 6 6 4 5 5 5 4 2 2 2 3 3 3 3 3 3 3 4 3 5 8 10 11 13 15 16 16 16 15 15 14 14 13 13 14 14 14
5 6 7 6 6 6 7 7 6 6 5 5 4 4 3 3 3 3 4 3 3 4 3 3 3 4 6 7 10 10 12 13 13 14 13 12 13 12 13 13 13 13 13
5 7 7 6 6 6 7 7 7 7 6 6 6 5 4 4 3 3 3 3 3 3 2 2 3 3 5 6 7 9 9 10 11 12 11 11 11 11 11 12 12 12 12
6 6 7 7 7 7 7 6 6 7 6 7 8 6 4 5 4 4 4 3 2 3 2 4 2 3 4 5 6 7 7 9 10 10 10 11 11 11 11 10 10 11 11
5 5 6 6 6 6 7 6 6 7 6 6 6 6 5 4 4 4 4 4 4 3 4 4 2 2 2 3 6 6 7 8 10 10 10 10 10 10 10 10 10 10 10
5 4 5 6 6 5 6 6 5 5 5 5 5 5 4 4 3 3 4 4 4 4 4 4 3 3 2 2 4 5 6 7 8 9 9 10 10 10 9 10 10 10 10
5 5 5 5 5 6 5 5 5 5 5 5 4 5 5 4 3 3 3 3 3 4 5 4 3 2 2 3 2 3 4 5 6 8 9 10 10 10 10 10 9 9 9
6 5 5 5 5 5 5 5 6 5 6 6 6 5 5 4 4 3 3 4 4 4 4 5 3 2 3 3 3 3 3 3 4 7 9 9 10 10 10 10 10 10 10
5 5 5 5 5 5 5 5 5 6 6 6 6 6 5 5 4 4 3 3 3 3 3 3 4 3 3 2 2 2 2 2 3 5 6 8 8 9 9 10 10 10 10
5 5 5 5 6 6 6 5 5 5 5 5 5 5 5 5 5 5 4 4 3 2 2 2 3 3 3 2 1 2 2 2 3 2 3 4 6 8 9 9 10 10 10
6 5 5 5 5 5 5 5 5 5 4 4 4 4 5 5 7 6 4 4 3 3 3 3 3 3 2 2 3 3 3 3 3 2 2 2 2 3 5 8 10 10 11
5 5 5 6 5 5 4 5 5 4 4 4 3 3 3 4 5 5 5 5 5 5 5 4 4 4 5 4 3 3 3 2 3 2 2 3 2 3 4 6 9 11 11
4 4 5 5 5 5 5 5 5 4 3 3 4 3 3 3 3 3 3 4 4 6 6 6 6 6 5 5 4 4 4 4 5 4 2 3 2 4 4 7 9 10 10
3 4 4 4 4 4 5 5 5 4 3 3 3 3 4 3 3 3 2 2 3 4 5 5 5 6 5 5 6 6 5 4 3 2 3 3 3 4 4 4 7 9 9
3 3 4 4 4 4 5 5 4 2 2 2 3 3 4 3 4 3 2 2 3 4 4 4 4 4 5 5 4 2 2 2 3 3 2 3 2 2 3 4 5 8 10
3 3 3 3 4 4 4 4 4 3 2 2 2 2 3 4 3 2 3 3 4 4 3 3 3 3 3 3 3 4 5 4 3 3 3 3 2 1 2 2 3 4 5
Wind_Direction
160 165 167 172 182 182 186 187 191 201 210 225 228 214 195 190 187 183 191 196 198 199 202 204 206 209 210 210 212 212 213 214 213 214 215 214 216 216 216 217 218 217 218
165 163 166 174 187 191 194 195 193 193 206 218 220 216 205 202 193 190 196 202 205 205 208 212 215 214 215 216 218 218 217 218 219 218 219 218 217 219 220 222 222 223 224
169 167 166 176 188 187 187 189 190 190 198 204 213 227 210 206 205 202 200 201 207 212 215 217 221 220 221 223 224 222 222 221 222 221 222 221 221 223 223 223 225 227 228
170 166 169 182 190 185 180 176 179 183 205 204 217 239 227 210 208 211 204 204 207 215 219 222 222 222 224 227 227 226 224 223 223 223 223 224 225 227 228 230 230 230 229
177 174 175 183 183 177 175 186 179 177 189 212 227 242 239 225 216 217 211 211 210 215 218 224 226 226 228 228 228 228 228 227 226 227 229 231 232 232 232 233 234 232 231
183 180 179 181 176 169 180 181 177 182 189 197 227 262 266 250 234 222 217 214 220 222 222 224 225 227 229 230 230 230 231 232 231 231 233 235 236 235 234 234 234 234 234
181 176 177 174 175 179 188 183 173 180 203 164 107 333 318 287 249 236 222 210 223 226 223 222 221 222 229 233 234 234 235 236 235 236 236 238 238 236 234 233 233 234 236
182 181 174 180 181 180 183 185 174 171 203 172 150 111 333 326 300 252 233 222 229 228 230 226 221 219 221 225 230 231 234 237 239 240 239 238 238 236 234 232 233 236 239
187 187 183 182 184 182 188 194 186 180 195 203 177 162 173 234 287 301 273 247 241 234 238 234 223 219 218 220 226 231 235 238 241 243 240 238 237 234 232 234 235 235 236
192 195 192 187 185 185 188 197 193 186 181 200 215 208 191 178 194 277 300 276 259 243 240 239 234 227 224 222 226 228 233 236 239 241 241 239 236 232 232 233 236 236 235
198 199 194 188 189 191 194 199 197 195 189 194 201 207 219 220 194 193 261 282 285 264 248 231 230 232 230 227 228 232 234 236 239 240 240 239 236 231 230 232 235 236 235
205 204 199 195 197 196 200 201 203 201 202 201 205 200 195 202 208 200 226 253 264 272 263 240 227 236 235 229 232 232 232 233 237 238 237 236 234 232 231 233 235 236 236
208 211 206 199 203 206 203 198 202 210 206 206 210 214 212 217 207 194 204 239 257 275 285 274 241 233 238 235 238 234 233 233 235 234 232 233 232 231 232 234 236 236 236
210 206 204 203 207 206 209 204 209 213 210 211 220 214 214 223 212 203 196 201 255 280 276 266 272 234 229 231 237 229 231 228 225 225 226 229 229 228 230 230 232 233 235
210 204 204 206 209 207 208 203 213 217 212 213 217 214 218 227 215 212 203 193 193 240 266 258 260 260 238 230 233 228 230 232 228 225 224 227 228 227 227 228 229 229 231
206 201 204 207 208 208 205 202 211 217 210 216 215 213 221 226 222 212 205 204 194 201 240 248 241 251 257 263 252 239 236 236 227 221 220 223 225 223 224 227 227 228 229
205 210 206 205 210 212 209 205 210 203 208 222 225 217 224 221 218 220 212 207 208 196 230 259 247 249 245 255 270 260 259 245 238 226 225 228 227 224 226 228 227 226 227
208 211 210 207 210 213 210 207 214 212 211 223 226 217 224 221 216 226 219 222 224 214 214 246 261 250 239 232 234 246 257 255 245 235 230 230 227 229 228 230 230 230 230
210 207 202 205 209 210 210 215 213 216 216 221 219 216 222 214 222 228 227 234 238 237 216 224 253 255 253 243 250 268 260 262 261 252 239 235 231 231 231 233 235 233 233
205 205 205 207 211 212 212 217 218 223 221 220 219 219 222 214 217 219 227 232 228 223 216 224 247 255 259 256 217 242 265 262 261 257 248 244 240 237 238 238 237 236 235
206 198 197 203 206 206 216 210 213 218 214 218 222 221 220 213 212 214 218 223 216 216 220 226 240 254 257 246 233 225 236 252 257 230 230 241 229 236 246 246 242 242 237
205 196 197 199 203 215 212 199 196 200 198 202 214 223 224 228 223 225 224 222 212 216 224 229 240 243 250 244 238 229 222 231 257 234 200 249 218 239 248 245 242 239 236
201 199 202 199 202 209 201 196 188 188 193 205 213 217 230 236 226 229 240 250 247 239 227 223 232 240 240 233 223 231 224 221 239 222 193 252 237 248 255 256 245 236 232
201 201 205 202 200 210 203 199 191 187 195 210 213 211 209 224 226 220 232 264 280 277 259 237 230 240 242 232 218 222 223 230 255 244 185 229 242 250 266 256 244 234 234
209 209 198 198 199 213 203 193 184 179 193 225 226 208 196 209 233 209 193 244 283 288 294 280 257 254 256 248 223 200 203 212 258 260 213 200 229 257 263 263 258 243 236
207 201 194 202 199 214 216 196 178 177 193 236 258 243 215 211 228 215 203 220 255 270 289 313 315 309 280 261 230 203 199 209 235 249 228 198 218 218 270 259 252 253 243
Height
1535 1538 1540 1543 1545 1547 1549 1550 1552 1554 1556 1557 1558 1559 1561 1562 1562 1563 1563 1564 1564 1564 1565 1565 1565 1565 1566 1566 1566 1566 1567 1567 1568 1568 1569 1569 1570 1570 1571 1572 1572 1573 1574
1536 1538 1541 1543 1545 1547 1549 1551 1552 1554 1555 1557 1558 1559 1560 1561 1562 1562 1563 1563 1563 1564 1564 1564 1564 1564 1564 1564 1565 1565 1565 1566 1566 1567 1567 1568 1568 1569 1569 1570 1570 1571 1572
1537 1539 1541 1543 1545 1547 1549 1551 1552 1554 1555 1556 1558 1559 1560 1560 1561 1561 1562 1562 1562 1563 1563 1563 1563 1563 1563 1563 1563 1563 1564 1564 1564 1565 1565 1566 1566 1567 1567 1568 1568 1569 1570
1537 1539 1541 1543 1545 1547 1548 1550 1551 1553 1554 1556 1557 1558 1559 1559 1560 1560 1561 1561 1561 1561 1562 1562 1562 1562 1562 1562 1562 1562 1562 1562 1563 1563 1563 1564 1564 1565 1565 1566 1566 1567 1567
1537 1538 1540 1542 1544 1546 1548 1549 1551 1552 1554 1555 1556 1557 1558 1558 1558 1559 1559 1559 1560 1560 1560 1560 1560 1560 1560 1560 1560 1560 1560 1560 1560 1561 1561 1561 1562 1562 1563 1563 1564 1564 1564
1536 1538 1540 1542 1543 1545 1547 1548 1550 1551 1553 1554 1555 1556 1556 1557 1557 1557 1557 1558 1558 1558 1558 1559 1559 1558 1558 1558 1558 1558 1558 1558 1558 1558 1558 1559 1559 1559 1560 1560 1561 1561 1561
1535 1537 1539 1541 1542 1544 1545 1547 1549 1550 1551 1553 1554 1554 1555 1555 1555 1555 1555 1556 1556 1556 1556 1557 1557 1556 1556 1556 1556 1556 1556 1556 1556 1555 1556 1556 1556 1556 1557 1557 1557 1558 1558
1535 1536 1538 1540 1541 1543 1544 1546 1547 1548 1550 1551 1552 1553 1553 1554 1553 1553 1553 1553 1554 1554 1554 1554 1554 1554 1554 1553 1553 1553 1553 1553 1553 1553 1553 1553 1553 1553 1553 1554 1554 1554 1554
1534 1536 1537 1539 1540 1542 1543 1544 1546 1547 1548 1550 1551 1551 1551 1551 1551 1551 1551 1551 1551 1551 1551 1552 1552 1551 1551 1551 1551 1551 1550 1550 1550 1550 1550 1549 1549 1549 1550 1550 1550 1550 1550
1533 1535 1536 1538 1539 1540 1541 1543 1545 1546 1547 1547 1548 1549 1550 1549 1550 1549 1549 1549 1549 1549 1549 1549 1549 1548 1548 1548 1547 1547 1547 1547 1547 1546 1546 1546 1546 1546 1546 1546 1547 1547 1547
1531 1533 1534 1536 1537 1538 1539 1541 1542 1543 1544 1545 1546 1547 1548 1548 1548 1547 1546 1546 1546 1546 1546 1546 1545 1545 1545 1545 1544 1544 1544 1543 1543 1543 1543 1543 1543 1543 1543 1543 1543 1543 1543
1530 1531 1532 1534 1535 1536 1537 1538 1540 1541 1542 1542 1543 1544 1545 1545 1545 1545 1544 1543 1543 1543 1543 1543 1542 1542 1542 1542 1541 1541 1540 1540 1539 1539 1539 1539 1539 1539 1539 1539 1539 1539 1539
1527 1529 1530 1531 1532 1534 1535 1536 1537 1538 1539 1540 1540 1541 1542 1542 1543 1543 1542 1541 1540 1540 1539 1539 1539 1539 1539 1539 1538 1538 1537 1537 1536 1535 1536 1536 1536 1536 1536 1536 1535 1535 1535
1525 1526 1528 1529 1530 1531 1532 1533 1534 1534 1535 1536 1537 1538 1538 1539 1539 1539 1539 1539 1537 1536 1536 1536 1536 1536 1536 1535 1535 1535 1534 1533 1532 1532 1532 1532 1532 1532 1532 1532 1532 1531 1531
1523 1524 1525 1526 1527 1528 1529 1529 1530 1531 1532 1532 1533 1534 1535 1535 1535 1535 1536 1536 1536 1533 1532 1532 1532 1532 1532 1532 1532 1531 1531 1530 1529 1529 1528 1529 1529 1529 1528 1528 1528 1528 1527
1520 1521 1521 1522 1523 1524 1525 1526 1526 1527 1528 1528 1529 1530 1531 1531 1531 1532 1531 1532 1531 1531 1529 1528 1528 1528 1528 1528 1528 1528 1527 1527 1526 1525 1525 1525 1525 1525 1525 1524 1524 1524 1524
1516 1517 1518 1519 1519 1520 1521 1522 1522 1523 1524 1524 1525 1526 1526 1527 1527 1527 1527 1527 1527 1527 1525 1524 1525 1524 1525 1524 1524 1524 1523 1523 1522 1522 1522 1521 1521 1521 1521 1521 1520 1520 1520
1512 1513 1514 1515 1516 1517 1517 1518 1518 1519 1520 1521 1521 1521 1522 1522 1522 1523 1523 1523 1522 1522 1522 1520 1520 1520 1520 1520 1519 1519 1519 1519 1518 1518 1518 1517 1517 1517 1517 1517 1517 1516 1516
1508 1509 1510 1511 1512 1513 1514 1514 1515 1515 1516 1516 1517 1517 1518 1518 1518 1518 1518 1518 1518 1518 1517 1516 1515 1516 1515 1515 1515 1515 1514 1514 1514 1514 1513 1513 1513 1513 1512 1512 1512 1512 1512
1504 1504 1506 1507 1508 1509 1509 1510 1511 1511 1511 1511 1512 1513 1513 1513 1513 1514 1514 1514 1514 1514 1513 1512 1511 1511 1510 1510 1510 1509 1509 1509 1509 1509 1509 1509 1508 1508 1508 1508 1508 1508 1507
1500 1501 1502 1503 1504 1504 1505 1505 1506 1507 1507 1507 1508 1508 1509 1509 1509 1510 1510 1509 1510 1509 1508 1508 1507 1506 1506 1506 1505 1505 1505 1505 1505 1505 1505 1504 1504 1504 1504 1503 1503 1503 1502
1496 1497 1498 1499 1499 1500 1501 1502 1502 1502 1503 1504 1504 1504 1505 1505 1506 1506 1506 1506 1506 1505 1504 1503 1502 1501 1501 1501 1501 1501 1500 1500 1500 1501 1500 1500 1500 1499 1499 1499 1499 1498 1498
1492 1492 1493 1494 1495 1496 1497 1498 1498 1499 1499 1499 1500 1500 1501 1501 1501 1501 1501 1501 1501 1500 1500 1499 1498 1497 1497 1497 1497 1496 1496 1495 1495 1496 1496 1494 1495 1494 1494 1494 1494 1494 1493
1488 1488 1489 1490 1491 1492 1493 1494 1494 1495 1495 1495 1495 1496 1496 1497 1497 1497 1497 1496 1496 1495 1495 1494 1494 1493 1493 1493 1493 1493 1492 1491 1491 1491 1491 1490 1490 1489 1489 1489 1489 1488 1488
1484 1485 1486 1486 1487 1488 1489 1489 1490 1490 1490 1491 1491 1492 1492 1492 1492 1493 1493 1492 1491 1491 1491 1490 1490 1489 1489 1489 1489 1488 1487 1486 1485 1486 1486 1486 1485 1484 1484 1483 1483 1483 1483
1481 1482 1482 1483 1483 1484 1485 1485 1486 1486 1487 1487 1488 1488 1488 1488 1488 1488 1488 1487 1486 1486 1486 1485 1485 1485 1485 1484 1484 1484 1483 1482 1481 1481 1481 1481 1480 1480 1478 1478 1479 1478 1478